This is the latest recevied weather packets stored in our database for station/object K5DLF-13. If no packets are shown the sender has not sent any weather packets the latest 10 day(s).
| Time | Temp. | Humidity | Pressure | Rain* | Wind** | Luminosity | Snow |
|---|---|---|---|---|---|---|---|
| 1777739105 | 21.67° C | 64% | 1017.4 hPa | 0.25 mm | - | 821 W/m² | - |
| 1777738805 | 21.67° C | 65% | 1017.3 hPa | 0.25 mm | - | 809 W/m² | - |
| 1777738505 | 21.11° C | 63% | 1017.1 hPa | 0.25 mm | - | 803 W/m² | - |
| 1777738205 | 21.11° C | 66% | 1017.2 hPa | 0.25 mm | - | 788 W/m² | - |
| 1777737905 | 21.11° C | 68% | 1017.2 hPa | 0.25 mm | - | 777 W/m² | - |
| 1777737605 | 20.56° C | 70% | 1017.2 hPa | 0.25 mm | - | 758 W/m² | - |
| 1777737305 | 20.56° C | 70% | 1017.3 hPa | 0.25 mm | - | 756 W/m² | - |
| 1777737005 | 20.56° C | 70% | 1017.4 hPa | 0.25 mm | - | 740 W/m² | - |
| 1777736705 | 20.56° C | 71% | 1017.3 hPa | 0.25 mm | - | 731 W/m² | - |
| 1777736405 | 20° C | 72% | 1017.3 hPa | 0.25 mm | - | 717 W/m² | - |
| 1777736105 | 20° C | 73% | 1017.2 hPa | 0 mm | - | 705 W/m² | - |
| 1777735805 | 19.44° C | 74% | 1017.4 hPa | 0 mm | - | 689 W/m² | - |
| 1777735505 | 19.44° C | 74% | 1017.4 hPa | 0 mm | - | 592 W/m² | - |
| 1777735205 | 19.44° C | 77% | 1017.5 hPa | 0 mm | - | 659 W/m² | - |
| 1777734905 | 18.89° C | 76% | 1017.4 hPa | 0 mm | - | 643 W/m² | - |
| 1777734605 | 18.33° C | 78% | 1017.3 hPa | 0 mm | - | 631 W/m² | - |
| 1777734305 | 18.33° C | 78% | 1017.4 hPa | 0 mm | - | 617 W/m² | - |
| 1777734005 | 17.78° C | 80% | 1017.3 hPa | 0 mm | - | 603 W/m² | - |
| 1777733705 | 17.78° C | 79% | 1017.4 hPa | 0 mm | - | 585 W/m² | - |
| 1777733405 | 17.22° C | 82% | 1017.3 hPa | 0 mm | - | 568 W/m² | - |
| 1777733105 | 17.22° C | 83% | 1017.2 hPa | 0 mm | - | 548 W/m² | - |
| 1777732805 | 16.67° C | 84% | 1017.2 hPa | 0 mm | - | 461 W/m² | - |
| 1777732505 | 16.67° C | 87% | 1017.4 hPa | 0 mm | - | 383 W/m² | - |
| 1777732205 | 16.11° C | 87% | 1017.3 hPa | 0 mm | - | 455 W/m² | - |
| 1777731905 | 15.56° C | 87% | 1017.2 hPa | 0 mm | - | 190 W/m² | - |
* Rain latest hour (hover to see other rain measurements)
** Current wind speed in m/s (hover to see current wind gust speed)